星链-37518(STARLINK-37518)

导读

STARLINK-37518(NORAD编号69259)是美国SpaceX公司星链(Starlink)星座中的一颗低轨通信卫星,属于全球卫星互联网组网项目的组成部分。星链项目旨在通过部署数千颗批量生产的小型低轨卫星,结合地面收发设备,为全球未覆盖互联网服务的区域提供低延迟、高速的网络连接。该卫星运行在近地轨道,围绕地球周期约90余分钟,助力星链实现更广泛的宽带网络覆盖,推动全球互联互通,不过其大规模部署也引发了外太空安全等相关讨论。

Basic Information
目录编号:
69259
目录名称:
STARLINK-37518
国际标识:
2026-117X
轨道中心:
EARTH
卫星名称:
星链-37518
卫星全名:
星链-37518(STARLINK-37518)
卫星状态:
在轨 (已飞行105 天)
发射日期:
2026-05-29 UTC
国别 :
美国 (US)
星等 :
--
This satellite is enrolled in the Space Conjunction Data Service (SCDS) and the current flight risk assessment level is: No High Risk
Orbit Information
数据来源 国际轨道数据 AOE轨道数据
星历时间 2026-09-11T14:09:14+0800
15小时前
查看轨道信息
2026-09-06T00:00:00+0800
6天前
查看轨道信息
半长轴 6840.816km 6840.843km
偏心率 0.0001537 0.0001502
轨道倾角 53.155° 53.160°
近地点辐角 123.951° 70.040°
升交点赤经 197.253° 223.389°
平近点角 236.164° 356.152°
近地点 461.627km 461.678km
远地点 463.731km 463.734km
周期 93.847分钟 93.848分钟
每日圈数 15.344084 15.343992
Detailed Information
固有亮度:
5
最大亮度:
2.5
卫星平台:
Starlink V1.0
覆盖范围:
全球
运营商:
太空探索技术公司
运营商所在国:
美国
制造商(研发单位):
太空探索技术公司
制造商所在国:
美国
使用方式:
暂无
Satellite Introduction
Starlink 计划是 SpaceX 推出的全球卫星互联网项目,通过发射低轨道卫星,为全球尤其是偏远地区提供高速、低延迟的互联网服务。自 2019 年起,Starlink 已部署数千颗卫星,旨在缩小全球数字鸿沟,推动互联网普及。该项目还为军事、航空等行业提供通信支持,带来广泛经济效益。
2D Orbit Map
3D Orbit Map
Orbit Altitude Analysis Chart
Orbit Inclination Analysis Chart
Orbit Comprehensive Analysis Chart
View Comprehensive Chart
Conjunction Data List
Event ID Objects TCA Miss Dist (km) Collision Risk Probability Collision Risk Index (CRI) Action
CDM_260913-132106-100706-925921
2026-09-13T
13:21:02+0000
1.071 km
极远距离
1.235055E-5 中风险 0.57
CDM_260913-233006-100706-925921
2026-09-13T
23:30:41+0000
1.112 km
极远距离
1.08518E-5 中风险 0.56
CDM_260913-181605-921106-925921
2026-09-13T
18:16:09+0000
1.460 km
极远距离
6.380167E-6 低风险 0.51
CDM_260913-114706-100706-925922
2026-09-13T
11:47:15+0000
1.505 km
极远距离
3.932679E-6 低风险 0.47
CDM_260914-072406-670306-925921
2026-09-14T
07:24:01+0000
1.870 km
极远距离
3.348719E-6 低风险 0.45
CDM_260913-194905-921106-925922
2026-09-13T
19:49:57+0000
1.810 km
极远距离
3.286893E-6 低风险 0.45
CDM_260913-215606-100706-925922
2026-09-13T
21:56:54+0000
1.620 km
极远距离
3.127948E-6 低风险 0.45
CDM_260913-164205-921106-925921
2026-09-13T
16:42:21+0000
2.987 km
极远距离
1.198337E-6 低风险 0.37
CDM_260913-082503-008206-925921
2026-09-13T
08:25:20+0000
2.757 km
极远距离
1.07289E-6 低风险 0.36
CDM_260907-014605-187406-925921
2026-09-07T
01:46:49+0000
2.915 km
极远距离
7.663236E-7 极低风险 0.33
Miss Distance Evolution Trend with All Objects
Collision Probability Evolution Trend with All Objects